Marshall, TX

11:21 AM CDT on October 23, 2019 (GMT -0500)
Harrison County

Weather History for KASL - August, 2019

Change the Weather History Date:

Monday, August 26, 2019

  Actual Average (KGGG) Record (KGGG)
Temperature  
Mean Temperature 85 °F -  
Max Temperature 95 °F 90 °F 105 °F (1938)
Min Temperature 75 °F 70 °F 59 °F (1966)
Cooling Degree Days 20    
Growing Degree Days 35 (Base 50)    
Moisture  
Dew Point 73 °F    
Average Humidity 72    
Maximum Humidity 91    
Minimum Humidity 45    
Precipitation  
Precipitation 0.00 in - - ()
Sea Level Pressure  
Sea Level Pressure 29.83 in    
Wind  
Wind Speed - (North)    
Max Wind Speed -    
Max Gust Speed -    
Visibility 10 miles    
Events      
Averages and records for this station are not official NWS values.
T = Trace of Precipitation, MM = Missing Value Source: NWS Daily Summary

Daily Weather History Graph

Daily Weather History Graph

Search for Another Location

Airport or City:

Astronomy

Aug. 26, 2019 Rise Set
Actual Time 6:48 AM CDT 7:49 PM CDT
Civil Twilight 6:22 AM CDT 8:14 PM CDT
Nautical Twilight 5:52 AM CDT 8:44 PM CDT
Astronomical Twilight 5:21 AM CDT 9:15 PM CDT
Moon 2:25 AM CDT (8/26) 5:01 PM CDT (8/26)
Length of Visible Light 13h 51m
Length of Day
13h 01m
Waning Crescent, 19% of the Moon is Illuminated
Aug 26
Waning Crescent
Aug 30
New
Sep 5
First Quarter
Sep 13
Full
Sep 21
Last Quarter

Hourly Weather History & Observations

Time (CDT) Temp. Heat Index Dew Point Humidity Pressure Visibility Wind Dir Wind Speed Gust Speed Precip Events Conditions
12:15 AM 78.1 °F - 73.4 °F 85% 29.86 in 10.0 mi North - - N/A   Mostly Cloudy
12:35 AM 77.4 °F - 72.9 °F 86% 29.86 in 10.0 mi North - - N/A   Scattered Clouds
12:55 AM 77.2 °F - 73.4 °F 88% 29.85 in 10.0 mi North - - N/A   Clear
1:15 AM 76.3 °F - 72.5 °F 88% 29.85 in 10.0 mi North - - N/A   Clear
1:35 AM 76.3 °F - 72.9 °F 89% 29.85 in 10.0 mi North - - N/A   Clear
1:55 AM 75.6 °F - 72.5 °F 90% 29.84 in 10.0 mi North - - N/A   Clear
2:15 AM 76.3 °F - 73.0 °F 90% 29.84 in 10.0 mi North - - N/A   Clear
2:35 AM 75.4 °F - 72.5 °F 91% 29.84 in 10.0 mi North - - N/A   Clear
2:55 AM 75.2 °F - 72.1 °F 90% 29.84 in 10.0 mi North - - N/A   Clear
3:15 AM 75.2 °F - 72.5 °F 91% 29.84 in 10.0 mi North - - N/A   Clear
3:35 AM 75.2 °F - 72.5 °F 91% 29.84 in 10.0 mi North - - N/A   Scattered Clouds
3:55 AM 75.2 °F - 72.5 °F 91% 29.83 in 10.0 mi North - - N/A   Mostly Cloudy
4:15 AM 75.2 °F - 72.5 °F 91% 29.84 in 10.0 mi North - - N/A   Overcast
4:35 AM 75.2 °F - 72.3 °F 91% 29.84 in 10.0 mi North - - N/A   Overcast
4:55 AM 75.2 °F - 72.1 °F 90% 29.84 in 10.0 mi North - - N/A   Overcast
5:15 AM 75.2 °F - 72.1 °F 90% 29.84 in 10.0 mi North - - N/A   Overcast
5:35 AM 75.7 °F - 72.5 °F 90% 29.84 in 10.0 mi North - - N/A   Overcast
5:55 AM 76.3 °F - 72.9 °F 89% 29.84 in 7.0 mi North - - N/A   Overcast
6:15 AM 76.3 °F - 72.9 °F 89% 29.83 in 7.0 mi North - - N/A   Overcast
6:35 AM 76.3 °F - 72.9 °F 89% 29.83 in 7.0 mi North - - N/A   Overcast
6:55 AM 76.3 °F - 72.9 °F 89% 29.84 in 7.0 mi North - - N/A   Overcast
7:15 AM 76.3 °F - 72.9 °F 89% 29.84 in 7.0 mi North - - N/A   Overcast
7:55 AM 77.4 °F - 73.6 °F 88% 29.84 in 7.0 mi North - - N/A   Overcast
8:15 AM 77.4 °F - 73.4 °F 88% 29.85 in 7.0 mi North - - N/A   Overcast
8:35 AM 77.9 °F - 73.4 °F 86% 29.85 in 7.0 mi North - - N/A   Overcast
8:55 AM 78.8 °F - 73.9 °F 85% 29.85 in 7.0 mi North - - N/A   Overcast
9:15 AM 78.8 °F - 73.8 °F 84% 29.85 in 7.0 mi North - - N/A   Overcast
9:35 AM 79.9 °F - 74.1 °F 82% 29.85 in 7.0 mi North - - N/A   Overcast
9:55 AM 82.4 °F 89.8 °F 75.7 °F 80% 29.85 in 10.0 mi North - - N/A   Overcast
10:15 AM 82.4 °F 89.5 °F 75.4 °F 79% 29.85 in 10.0 mi North - - N/A   Overcast
10:35 AM 85.1 °F 94.9 °F 76.3 °F 75% 29.85 in 10.0 mi North - - N/A   Overcast
10:55 AM 85.1 °F 93.3 °F 74.8 °F 71% 29.85 in 10.0 mi North - - N/A   Overcast
11:15 AM 85.5 °F 93.4 °F 74.1 °F 69% 29.86 in 10.0 mi North - - N/A   Mostly Cloudy
11:35 AM 85.6 °F 93.0 °F 73.8 °F 67% 29.86 in 10.0 mi North - - N/A   Scattered Clouds
11:55 AM 90.0 °F 100.2 °F 75.0 °F 61% 29.86 in 10.0 mi North - - N/A   Clear
12:15 PM 90.0 °F 97.4 °F 72.5 °F 56% 29.86 in 10.0 mi North - - N/A   Scattered Clouds
12:35 PM 90.0 °F 98.5 °F 73.6 °F 58% 29.85 in 10.0 mi North - - N/A   Mostly Cloudy
12:55 PM 90.0 °F 97.4 °F 72.3 °F 56% 29.85 in 10.0 mi North - - N/A   Scattered Clouds
1:15 PM 92.5 °F 102.6 °F 73.9 °F 55% 29.84 in 10.0 mi North - - N/A   Clear
1:35 PM 92.5 °F 100.7 °F 72.7 °F 52% 29.84 in 10.0 mi North - - N/A   Scattered Clouds
1:55 PM 92.7 °F 99.9 °F 71.8 °F 50% 29.83 in 10.0 mi North - - N/A   Scattered Clouds
2:15 PM 92.5 °F 101.3 °F 72.9 °F 53% 29.83 in 10.0 mi North - - N/A   Mostly Cloudy
2:35 PM 93.0 °F 99.5 °F 70.9 °F 48% 29.82 in 10.0 mi North - - N/A   Mostly Cloudy
2:55 PM 92.7 °F 99.4 °F 71.2 °F 49% 29.81 in 10.0 mi North - - N/A   Scattered Clouds
3:15 PM 95.0 °F 103.2 °F 71.8 °F 47% 29.80 in 10.0 mi North - - N/A   Scattered Clouds
3:35 PM 92.7 °F 99.4 °F 70.9 °F 49% 29.80 in 10.0 mi North - - N/A   Mostly Cloudy
3:55 PM 95.0 °F 101.9 °F 70.7 °F 45% 29.79 in 10.0 mi North - - N/A   Scattered Clouds
4:15 PM 95.0 °F 102.5 °F 71.1 °F 46% 29.79 in 10.0 mi North - - N/A   Clear
4:35 PM 95.0 °F 103.2 °F 71.6 °F 47% 29.78 in 10.0 mi North - - N/A   Scattered Clouds
4:55 PM 95.0 °F 102.5 °F 71.4 °F 46% 29.78 in 10.0 mi North - - N/A   Scattered Clouds
5:15 PM 95.0 °F 103.2 °F 71.6 °F 47% 29.78 in 10.0 mi North - - N/A   Clear
5:35 PM 95.0 °F 103.8 °F 72.5 °F 48% 29.78 in 10.0 mi North - - N/A   Scattered Clouds
5:55 PM 92.7 °F 99.9 °F 71.4 °F 50% 29.79 in 10.0 mi North - - N/A   Scattered Clouds
6:15 PM 93.0 °F 100.7 °F 72.1 °F 50% 29.79 in 10.0 mi North - - N/A   Clear
6:35 PM 92.5 °F 101.3 °F 72.9 °F 53% 29.80 in 10.0 mi North - - N/A   Clear
6:55 PM 92.5 °F 101.9 °F 73.8 °F 54% 29.80 in 10.0 mi North - - N/A   Clear
7:15 PM 90.0 °F 97.9 °F 72.7 °F 57% 29.80 in 10.0 mi North - - N/A   Clear
7:35 PM 90.0 °F 99.6 °F 74.3 °F 60% 29.80 in 10.0 mi North - - N/A   Clear
7:55 PM 87.4 °F 95.3 °F 73.4 °F 63% 29.80 in 10.0 mi North - - N/A   Clear
8:15 PM 86.2 °F 93.8 °F 73.4 °F 66% 29.81 in 10.0 mi North - - N/A   Clear
8:35 PM 85.1 °F 92.2 °F 73.4 °F 68% 29.81 in 10.0 mi North - - N/A   Clear
8:55 PM 85.1 °F 92.9 °F 74.3 °F 70% 29.83 in 10.0 mi North - - N/A   Clear
9:15 PM 85.1 °F 93.3 °F 74.8 °F 71% 29.83 in 10.0 mi North - - N/A   Clear
9:35 PM 85.1 °F 94.1 °F 75.4 °F 73% 29.83 in 10.0 mi North - - N/A   Clear
9:55 PM 85.1 °F 94.5 °F 76.1 °F 74% 29.84 in 10.0 mi North - - N/A   Clear
10:15 PM 85.1 °F 95.4 °F 76.8 °F 76% 29.83 in 10.0 mi North - - N/A   Clear
10:35 PM 84.9 °F 95.3 °F 77.0 °F 77% 29.83 in 10.0 mi North - - N/A   Clear
10:55 PM 82.4 °F 89.2 °F 74.8 °F 78% 29.83 in 10.0 mi North - - N/A   Clear
11:15 PM 82.4 °F 89.5 °F 75.4 °F 79% 29.84 in 10.0 mi North - - N/A   Clear
11:35 PM 82.4 °F 89.5 °F 75.4 °F 79% 29.84 in 10.0 mi North - - N/A   Clear
11:55 PM 82.4 °F 89.5 °F 75.4 °F 79% 29.85 in 10.0 mi North - - N/A   Clear